Date String (YYYY-MM-DD hh:mm:ss) UTC,Instrument flags,absolute air pressure of the measurement (hPa),sample flow rate (lpm),inlet stack bypass flow (lpm),air temperature of the measurement (°C),ambient temperature measured by the external sensor (°C),aerosol sample conditioner tube jacket temperature (°C),OPC LED temperature (°C),internal box temperature (°C),relative humidity of the measurement (%),span deviation,mass concentration of particles derived from Lorenz-Mie calculation of OPC scattering (μg/m³),mass concentration of particles derived from Lorenz-Mie calculation of OPC scattering (μg/m³),mass concentration of particles derived from Lorenz-Mie calculation of OPC scattering (μg/m³)
DateTimeUTC,F1_M11,P_M11,Q1_M11,Q2_M11,T1_M11,T2_M11,T3_M11,T4_M11,T5_M11,U1_M11,ZSPAN_M11,X2_M11,X0_M11,X1_M11
2024-05-16 03:00:00,SystemResetWarning,0828.6,5.01,000.00,024.3,021.6,000.0,033.0,025.2,025.7,0000.0,0001.27,0007.75,0000.87
2024-05-16 03:01:00,SystemResetWarning,0828.7,5.00,000.00,024.2,021.9,000.0,032.9,025.2,025.7,0000.0,0001.29,0007.62,0000.88
2024-05-16 03:02:00,SystemResetWarning,0828.7,5.00,000.00,024.2,022.2,000.0,032.8,025.5,025.7,0000.0,0001.27,0005.48,0000.87
2024-05-16 03:03:00,SystemResetWarning,0828.8,5.00,000.00,024.2,022.6,000.0,032.7,025.7,025.7,0000.0,0001.28,0004.78,0000.89
2024-05-16 03:04:00,SystemResetWarning,0828.8,5.00,000.00,024.3,022.9,000.0,032.7,026.0,025.5,0000.0,0001.29,0004.73,0000.89
2024-05-16 03:05:00,SystemResetWarning,0828.8,4.99,000.00,024.3,023.2,000.0,032.7,026.1,025.4,0000.0,0001.34,0004.89,0000.89
2024-05-16 03:06:00,SystemResetWarning,0829.0,5.00,000.00,024.4,023.4,000.0,032.7,026.2,025.4,0000.0,0001.33,0005.45,0000.90
2024-05-16 03:07:00,SystemResetWarning,0829.0,5.00,000.00,024.4,023.6,000.0,032.7,026.3,025.6,0000.0,0001.33,0006.19,0000.89
2024-05-16 03:08:00,SystemResetWarning,0829.0,5.00,000.00,024.5,023.8,000.0,032.7,026.4,025.4,0000.0,0001.34,0005.22,0000.89
2024-05-16 03:09:00,SystemResetWarning,0829.0,5.00,000.00,024.6,023.9,000.0,032.7,026.5,025.4,0000.0,0001.36,0005.75,0000.89
2024-05-16 03:10:00,SystemResetWarning,0829.0,5.00,000.00,024.6,024.1,000.0,032.7,026.5,025.4,0000.0,0001.39,0005.74,0000.89
2024-05-16 03:11:00,SystemResetWarning,0829.1,5.00,000.00,024.7,024.2,000.0,032.7,026.6,025.3,0000.0,0001.41,0005.06,0000.90
2024-05-16 03:12:00,SystemResetWarning,0829.1,4.99,000.00,024.7,024.3,000.0,032.8,026.6,025.2,0000.0,0001.41,0004.48,0000.90
2024-05-16 03:13:00,SystemResetWarning,0829.1,5.01,000.00,024.8,024.3,000.0,032.8,026.7,025.3,0000.0,0001.40,0006.92,0000.89
2024-05-16 03:14:00,SystemResetWarning,0829.1,5.01,000.00,024.9,024.4,000.0,032.8,026.8,025.2,0000.0,0001.39,0007.81,0000.88
2024-05-16 03:15:00,SystemResetWarning,0829.1,5.00,000.00,024.9,024.5,000.0,032.9,026.8,025.1,0000.0,0001.41,0008.29,0000.88
2024-05-16 03:16:00,SystemResetWarning,0829.2,4.98,000.00,025.0,024.6,000.0,032.9,026.9,025.0,0000.0,0001.39,0008.22,0000.88
2024-05-16 03:17:00,SystemResetWarning,0829.2,5.00,000.00,025.0,024.3,000.0,033.0,026.7,025.0,0000.0,0001.44,0008.07,0000.89
2024-05-16 03:18:00,SystemResetWarning,0829.1,5.00,000.00,024.7,022.4,000.0,033.1,025.7,025.5,0000.0,0001.41,0007.50,0000.89
2024-05-16 03:19:00,SystemResetWarning,0829.1,5.01,000.00,024.4,021.6,000.0,033.1,025.2,026.1,0000.0,0001.42,0008.46,0000.89
2024-05-16 03:20:00,SystemResetWarning,0829.2,5.01,000.00,024.2,021.9,000.0,033.0,025.2,026.3,0000.0,0001.44,0008.71,0000.90
2024-05-16 03:21:00,SystemResetWarning,0829.2,4.99,000.00,024.2,022.2,000.0,032.8,025.5,026.3,0000.0,0001.47,0008.87,0000.92
2024-05-16 03:22:00,SystemResetWarning,0829.3,5.00,000.00,024.2,022.6,000.0,032.8,025.7,026.2,0000.0,0001.53,0009.19,0000.92
2024-05-16 03:23:00,SystemResetWarning,0829.4,5.01,000.00,024.3,022.9,000.0,032.7,025.9,026.2,0000.0,0001.55,0009.28,0000.92
2024-05-16 03:24:00,SystemResetWarning,0829.3,5.00,000.00,024.3,023.2,000.0,032.7,026.1,026.7,0000.0,0001.60,0008.01,0000.93
2024-05-16 03:25:00,SystemResetWarning,0829.3,5.00,000.00,024.4,023.4,000.0,032.7,026.2,027.3,0000.0,0001.62,0007.21,0000.94
2024-05-16 03:26:00,SystemResetWarning,0829.4,5.00,000.00,024.4,023.6,000.0,032.7,026.3,027.4,0000.0,0001.62,0007.05,0000.96
2024-05-16 03:27:00,SystemResetWarning,0829.3,4.99,000.00,024.5,023.7,000.0,032.7,026.4,027.5,0000.0,0001.69,0007.59,0000.99
2024-05-16 03:28:00,SystemResetWarning,0829.3,5.00,000.00,024.5,023.9,000.0,032.7,026.4,027.4,0000.0,0001.78,0008.05,0001.05
2024-05-16 03:29:00,SystemResetWarning,0829.3,4.99,000.00,024.6,024.0,000.0,032.8,026.5,027.2,0000.0,0001.88,0008.84,0001.10
2024-05-16 03:30:00,SystemResetWarning,0829.4,5.00,000.00,024.6,024.1,000.0,032.8,026.5,027.4,0000.0,0001.98,0008.21,0001.15
2024-05-16 03:31:00,SystemResetWarning,0829.4,4.99,000.00,024.7,024.1,000.0,032.8,026.6,027.4,0000.0,0002.04,0008.01,0001.20
2024-05-16 03:32:00,SystemResetWarning,0829.3,5.00,000.00,024.7,024.2,000.0,032.8,026.6,027.3,0000.0,0002.14,0008.45,0001.26
2024-05-16 03:33:00,SystemResetWarning,0829.4,5.00,000.00,024.8,024.3,000.0,032.9,026.7,027.1,0000.0,0002.22,0008.77,0001.32
2024-05-16 03:34:00,SystemResetWarning,0829.5,5.00,000.00,024.8,024.4,000.0,032.9,026.7,026.8,0000.0,0002.30,0008.84,0001.38
2024-05-16 03:35:00,SystemResetWarning,0829.4,5.00,000.00,024.9,024.4,000.0,032.9,026.8,026.9,0000.0,0002.36,0008.89,0001.44
2024-05-16 03:36:00,SystemResetWarning,0829.5,5.00,000.00,024.9,024.4,000.0,032.9,026.8,026.7,0000.0,0002.48,0009.05,0001.49
2024-05-16 03:37:00,SystemResetWarning,0829.5,5.00,000.00,025.0,024.5,000.0,033.0,026.8,026.0,0000.0,0002.52,0009.03,0001.55
2024-05-16 03:38:00,SystemResetWarning,0829.5,5.00,000.00,025.0,024.5,000.0,033.0,026.9,026.3,0000.0,0002.52,0009.15,0001.57
2024-05-16 03:39:00,SystemResetWarning,0829.5,5.00,000.00,025.0,024.6,000.0,033.1,026.9,026.1,0000.0,0002.47,0008.74,0001.58
2024-05-16 03:40:00,SystemResetWarning,0829.6,5.00,000.00,025.1,024.6,000.0,033.1,027.0,026.0,0000.0,0002.48,0008.08,0001.59
2024-05-16 03:41:00,SystemResetWarning,0829.6,5.01,000.00,025.1,024.6,000.0,033.1,027.0,026.0,0000.0,0002.51,0007.95,0001.62
2024-05-16 03:42:00,SystemResetWarning,0829.6,5.01,000.00,025.1,024.7,000.0,033.2,027.0,026.1,0000.0,0002.52,0007.68,0001.63
2024-05-16 03:43:00,SystemResetWarning,0829.6,5.00,000.00,025.2,024.7,000.0,033.2,027.1,026.0,0000.0,0002.48,0006.85,0001.63
2024-05-16 03:44:00,SystemResetWarning,0829.6,5.01,000.00,025.2,024.7,000.0,033.2,027.1,026.1,0000.0,0002.47,0006.87,0001.65
2024-05-16 03:45:00,SystemResetWarning,0829.6,4.99,000.00,025.2,024.7,000.0,033.3,027.1,026.0,0000.0,0002.48,0007.32,0001.67
2024-05-16 03:46:00,SystemResetWarning,0829.6,4.99,000.00,025.3,024.8,000.0,033.3,027.1,026.0,0000.0,0002.48,0007.46,0001.67
2024-05-16 03:47:00,SystemResetWarning,0829.6,5.00,000.00,025.3,024.8,000.0,033.3,027.2,026.0,0000.0,0002.42,0007.39,0001.70
2024-05-16 03:48:00,SystemResetWarning,0829.6,5.00,000.00,025.3,024.8,000.0,033.4,027.2,026.0,0000.0,0002.48,0007.51,0001.70
2024-05-16 03:49:00,SystemResetWarning,0829.6,5.00,000.00,025.3,024.8,000.0,033.4,027.2,025.9,0000.0,0002.54,0006.85,0001.71
2024-05-16 03:50:00,SystemResetWarning,0829.6,5.00,000.00,025.4,024.8,000.0,033.4,027.2,026.0,0000.0,0002.58,0006.97,0001.73
2024-05-16 03:51:00,SystemResetWarning,0829.7,5.01,000.00,025.4,024.9,000.0,033.4,027.3,026.1,0000.0,0002.61,0006.97,0001.75
2024-05-16 03:52:00,SystemResetWarning,0829.6,5.00,000.00,025.4,024.9,000.0,033.5,027.3,025.9,0000.0,0002.58,0006.91,0001.77
2024-05-16 03:53:00,SystemResetWarning,0829.7,5.01,000.00,025.4,024.9,000.0,033.5,027.3,026.0,0000.0,0002.64,0007.30,0001.77
2024-05-16 03:54:00,SystemResetWarning,0829.7,5.00,000.00,025.4,024.9,000.0,033.5,027.3,026.0,0000.0,0002.73,0007.53,0001.80
2024-05-16 03:55:00,SystemResetWarning,0829.6,4.98,000.00,025.3,023.2,000.0,033.6,026.4,026.3,0000.0,0002.86,0007.41,0001.82
2024-05-16 03:56:00,SystemResetWarning,0829.5,5.02,000.00,024.8,021.7,000.0,033.6,025.6,026.8,0000.0,0003.00,0007.03,0001.83
2024-05-16 03:57:00,SystemResetWarning,0829.5,5.00,000.00,024.6,021.7,000.0,033.5,025.4,027.3,0000.0,0003.08,0007.09,0001.83
2024-05-16 03:58:00,SystemResetWarning,0829.5,4.99,000.00,024.5,022.1,000.0,033.4,025.6,027.5,0000.0,0003.11,0007.07,0001.84
2024-05-16 03:59:00,SystemResetWarning,0829.6,5.01,000.00,024.5,022.4,000.0,033.2,025.8,027.6,0000.0,0003.12,0007.39,0001.85
